When you browse on this site, cookies collect data to enhance your experience and personalize the content and advertising you see.
Visit our Privacy Policy to learn more. By continuing to use the site, you agree to this use of cookies and data.
  • In Deutschland
  • Länderverzeichnis
  • Für 7 Tage
  • Wassertemperatur
  • Wetterkarte
  • Widgets
  • user-avatar
    Anmelden

    Stündliche Wetter Narwik

    Heute, 31 März, Dienstag

    Zeit Temperatur Niederschläge Wind Luftdruck Luftfeuchtigkeit
    00:00 -9°C° 0.9 mm 6 m/S 746 mmHg 89%
    01:00 -9°C° 0 mm 6 m/S 743 mmHg 92%
    02:00 -8°C° 1.7 mm 6 m/S 741 mmHg 92%
    03:00 -8°C° 1.7 mm 6 m/S 739 mmHg 93%
    04:00 -6°C° 1.7 mm 6 m/S 737 mmHg 94%
    05:00 -5°C° 2.8 mm 6 m/S 736 mmHg 95%
    06:00 -4°C° 2.8 mm 5 m/S 735 mmHg 95%
    07:00 -3°C° 0 mm 4 m/S 733 mmHg 96%
    08:00 -2°C° 1.6 mm 5 m/S 733 mmHg 96%
    09:00 -2°C° 1.6 mm 5 m/S 733 mmHg 96%
    10:00 -2°C° 1.6 mm 6 m/S 733 mmHg 97%
    11:00 -2°C° 1.1 mm 6 m/S 733 mmHg 96%
    12:00 -2°C° 1.1 mm 6 m/S 733 mmHg 96%
    13:00 -2°C° 1.1 mm 6 m/S 732 mmHg 96%
    14:00 -1°C° 1.1 mm 5 m/S 732 mmHg 96%
    15:00 -1°C° 1.1 mm 4 m/S 731 mmHg 97%
    16:00 -1°C° 1.1 mm 4 m/S 731 mmHg 97%
    17:00 -1°C° 0.9 mm 4 m/S 731 mmHg 97%
    18:00 -1°C° 0.9 mm 4 m/S 732 mmHg 97%
    19:00 -2°C° 0.9 mm 4 m/S 732 mmHg 97%
    20:00 -2°C° 0.8 mm 4 m/S 734 mmHg 96%
    21:00 -3°C° 0.8 mm 4 m/S 735 mmHg 95%
    22:00 -4°C° 0.8 mm 4 m/S 736 mmHg 95%
    23:00 -4°C° 0.6 mm 4 m/S 737 mmHg 94%

    Morgen, 1 April, Mittwoch

    Zeit Temperatur Niederschläge Wind Luftdruck Luftfeuchtigkeit
    00:00 -4°C° 0.6 mm 4 m/S 739 mmHg 94%
    01:00 -5°C° 0.6 mm 3 m/S 740 mmHg 94%
    02:00 -5°C° 0.5 mm 3 m/S 740 mmHg 94%
    03:00 -5°C° 0.5 mm 3 m/S 741 mmHg 93%
    04:00 -5°C° 0.5 mm 3 m/S 741 mmHg 93%
    05:00 -5°C° 0.2 mm 2 m/S 741 mmHg 93%
    06:00 -5°C° 0.2 mm 2 m/S 742 mmHg 92%
    07:00 -5°C° 0.2 mm 2 m/S 742 mmHg 92%
    08:00 -2°C° 0 mm 1 m/S 742 mmHg 90%
    09:00 -2°C° 0 mm 1 m/S 742 mmHg 87%
    10:00 -1°C° 0 mm 1 m/S 742 mmHg 85%
    11:00 -1°C° 0 mm 1 m/S 741 mmHg 82%
    12:00 -1°C° 0 mm 1 m/S 741 mmHg 80%
    13:00 0°C° 0 mm 1 m/S 741 mmHg 78%
    14:00 -1°C° 0 mm 1 m/S 740 mmHg 79%
    15:00 -1°C° 0 mm 1 m/S 740 mmHg 81%
    16:00 -2°C° 0 mm 1 m/S 739 mmHg 82%
    17:00 -3°C° 0 mm 1 m/S 739 mmHg 82%
    18:00 -7°C° 0 mm 2 m/S 738 mmHg 82%
    19:00 -8°C° 0 mm 2 m/S 738 mmHg 82%
    20:00 -10°C° 0 mm 3 m/S 737 mmHg 80%
    21:00 -10°C° 0 mm 3 m/S 737 mmHg 78%
    22:00 -12°C° 0 mm 3 m/S 736 mmHg 77%
    23:00 -12°C° 0 mm 3 m/S 735 mmHg 76%

    übermorgen, 2 April, Donnerstag

    Zeit Temperatur Niederschläge Wind Luftdruck Luftfeuchtigkeit
    00:00 -12°C° 0 mm 3 m/S 735 mmHg 76%
    01:00 -12°C° 0 mm 4 m/S 734 mmHg 76%
    02:00 -12°C° 0 mm 4 m/S 733 mmHg 78%
    03:00 -12°C° 0 mm 4 m/S 732 mmHg 80%
    04:00 -12°C° 0 mm 4 m/S 731 mmHg 82%
    05:00 -10°C° 0 mm 3 m/S 731 mmHg 83%
    06:00 -10°C° 0 mm 3 m/S 730 mmHg 84%
    07:00 -9°C° 0 mm 3 m/S 729 mmHg 86%
    08:00 -9°C° 0 mm 3 m/S 729 mmHg 85%
    09:00 -8°C° 0 mm 3 m/S 728 mmHg 84%
    10:00 -7°C° 0 mm 3 m/S 727 mmHg 83%
    11:00 -7°C° 0 mm 3 m/S 727 mmHg 83%
    12:00 -7°C° 0 mm 3 m/S 727 mmHg 82%
    13:00 -7°C° 0 mm 3 m/S 726 mmHg 82%
    14:00 -6°C° 0 mm 2 m/S 726 mmHg 82%
    15:00 -6°C° 0 mm 2 m/S 725 mmHg 83%
    16:00 -6°C° 0 mm 2 m/S 725 mmHg 84%
    17:00 -7°C° 0 mm 2 m/S 725 mmHg 85%
    18:00 -8°C° 0 mm 2 m/S 725 mmHg 86%
    19:00 -9°C° 0 mm 2 m/S 725 mmHg 87%
    20:00 -9°C° 0 mm 2 m/S 725 mmHg 86%
    21:00 -9°C° 0 mm 1 m/S 725 mmHg 86%
    22:00 -9°C° 0 mm 1 m/S 725 mmHg 86%
    23:00 -9°C° 0.1 mm 1 m/S 725 mmHg 87%

    3 April, Freitag

    Zeit Temperatur Niederschläge Wind Luftdruck Luftfeuchtigkeit
    00:00 -9°C° 0.1 mm 1 m/S 725 mmHg 88%
    01:00 -9°C° 0.1 mm 0 m/S 725 mmHg 90%
    02:00 -9°C° 0.1 mm 0 m/S 726 mmHg 91%
    03:00 -9°C° 0.1 mm 0 m/S 726 mmHg 93%
    04:00 -9°C° 0.1 mm 0 m/S 726 mmHg 94%
    05:00 -8°C° 0.1 mm 1 m/S 726 mmHg 94%
    06:00 -8°C° 0.1 mm 1 m/S 727 mmHg 94%
    07:00 -7°C° 0.1 mm 1 m/S 727 mmHg 94%
    08:00 -6°C° 0.1 mm 1 m/S 727 mmHg 93%
    09:00 -7°C° 0.1 mm 2 m/S 728 mmHg 91%
    10:00 -6°C° 0.1 mm 2 m/S 728 mmHg 90%
    11:00 -5°C° 0.2 mm 2 m/S 729 mmHg 88%
    12:00 -5°C° 0.2 mm 2 m/S 729 mmHg 86%
    13:00 -4°C° 0.2 mm 2 m/S 729 mmHg 84%
    14:00 -4°C° 0.5 mm 2 m/S 730 mmHg 86%
    15:00 -4°C° 0.5 mm 2 m/S 730 mmHg 87%
    16:00 -4°C° 0.5 mm 2 m/S 731 mmHg 89%
    17:00 -5°C° 0.6 mm 2 m/S 731 mmHg 89%
    18:00 -6°C° 0.6 mm 2 m/S 732 mmHg 89%
    19:00 -6°C° 0.6 mm 2 m/S 733 mmHg 89%
    20:00 -7°C° 0.9 mm 2 m/S 733 mmHg 90%
    21:00 -7°C° 0.9 mm 2 m/S 734 mmHg 92%
    22:00 -8°C° 0.9 mm 3 m/S 735 mmHg 93%
    23:00 -8°C° 0.5 mm 3 m/S 735 mmHg 93%

    4 April, Samstag

    Zeit Temperatur Niederschläge Wind Luftdruck Luftfeuchtigkeit
    00:00 -7°C° 0.5 mm 2 m/S 736 mmHg 93%
    01:00 -7°C° 0.5 mm 2 m/S 737 mmHg 92%
    02:00 -8°C° 0.2 mm 2 m/S 737 mmHg 92%
    03:00 -9°C° 0.2 mm 2 m/S 738 mmHg 91%
    04:00 -9°C° 0.2 mm 2 m/S 739 mmHg 90%
    05:00 -9°C° 0.1 mm 2 m/S 740 mmHg 91%
    06:00 -8°C° 0.1 mm 2 m/S 740 mmHg 91%
    07:00 -8°C° 0.1 mm 2 m/S 741 mmHg 92%
    08:00 -7°C° 0.1 mm 2 m/S 742 mmHg 89%
    09:00 -6°C° 0.1 mm 2 m/S 742 mmHg 86%
    10:00 -5°C° 0.1 mm 2 m/S 743 mmHg 84%
    11:00 -5°C° 0.3 mm 2 m/S 744 mmHg 82%
    12:00 -6°C° 0.3 mm 3 m/S 745 mmHg 80%
    13:00 -5°C° 0.3 mm 3 m/S 745 mmHg 78%
    14:00 -6°C° 0.3 mm 3 m/S 746 mmHg 78%
    15:00 -6°C° 0.3 mm 3 m/S 747 mmHg 79%
    16:00 -5°C° 0.3 mm 2 m/S 748 mmHg 79%
    17:00 -6°C° 0.1 mm 2 m/S 748 mmHg 82%
    18:00 -7°C° 0.1 mm 2 m/S 749 mmHg 84%
    19:00 -9°C° 0.1 mm 2 m/S 750 mmHg 86%
    20:00 -8°C° 0.3 mm 2 m/S 750 mmHg 88%
    21:00 -8°C° 0.3 mm 2 m/S 751 mmHg 90%
    22:00 -8°C° 0.3 mm 2 m/S 752 mmHg 92%
    23:00 -9°C° 0.2 mm 3 m/S 752 mmHg 92%

    5 April, Sonntag

    Zeit Temperatur Niederschläge Wind Luftdruck Luftfeuchtigkeit
    00:00 -10°C° 0.2 mm 3 m/S 752 mmHg 92%
    01:00 -12°C° 0.2 mm 3 m/S 753 mmHg 91%
    02:00 -12°C° 0.1 mm 3 m/S 753 mmHg 89%
    03:00 -12°C° 0.1 mm 4 m/S 753 mmHg 87%
    04:00 -12°C° 0.1 mm 4 m/S 753 mmHg 84%
    05:00 -12°C° 0 mm 4 m/S 753 mmHg 82%
    06:00 -11°C° 0 mm 4 m/S 752 mmHg 79%
    07:00 -10°C° 0 mm 4 m/S 752 mmHg 77%
    08:00 -8°C° 0 mm 3 m/S 752 mmHg 74%
    09:00 -7°C° 0 mm 3 m/S 751 mmHg 71%
    10:00 -6°C° 0 mm 3 m/S 751 mmHg 69%
    11:00 -6°C° 0 mm 3 m/S 750 mmHg 71%
    12:00 -5°C° 0 mm 4 m/S 749 mmHg 74%
    13:00 -5°C° 0 mm 4 m/S 749 mmHg 77%
    14:00 -5°C° 0 mm 4 m/S 748 mmHg 78%
    15:00 -5°C° 0 mm 4 m/S 747 mmHg 80%
    16:00 -4°C° 0 mm 4 m/S 746 mmHg 82%
    17:00 -5°C° 0 mm 4 m/S 745 mmHg 82%
    18:00 -5°C° 0 mm 4 m/S 744 mmHg 82%
    19:00 -5°C° 0 mm 4 m/S 743 mmHg 81%
    20:00 -5°C° 0 mm 4 m/S 742 mmHg 82%
    21:00 -4°C° 0 mm 4 m/S 741 mmHg 83%
    22:00 -3°C° 0 mm 4 m/S 740 mmHg 83%
    23:00 -3°C° 0.6 mm 4 m/S 739 mmHg 87%
    Mehr zeigen